Regional Weather Roundup
Issued by NWS

Home | Current Version | Previous Version | Text Only | Print | Product List | Glossary On
Versions: 1 2 3 4 5 6 7 8 9 10 11 12 13 14 15 16 17 18 19 20 21 22 23 24 25 26 27
000
ASUS45 KREV 171910
RWRNV
NEVADA REGIONAL WEATHER ROUNDUP
NATIONAL WEATHER SERVICE RENO NV
1100 AM PST FRI NOV 17 2017

NOTE: "FAIR" INDICATES FEW OR NO CLOUDS BELOW 12,000 FEET WITH NO
SIGNIFICANT WEATHER AND/OR OBSTRUCTIONS TO VISIBILITY.

NVZ001-003-004-172000-
WESTERN NEVADA

CITY           SKY/WX    TMP DP  RH WIND       PRES   REMARKS
RENO           MOSUNNY   44  25  47 N14       30.15R
CARSON CITY    PTSUNNY   45  23  42 E3        30.15R
MINDEN         FAIR      45  25  45 W7        30.14R
SLIDE MTN        N/A     25  23  93 CALM        N/A
PYRAMID LAKE     N/A     41 N/A N/A N5          N/A
FALLON         PTSUNNY   46  26  45 NW20      30.14R
LOVELOCK       MOSUNNY   43  26  51 N8        30.14R
HAWTHORNE      CLOUDY    43  30  61 N13       30.13R
$$

NVZ002-CAZ072-073-172000-
NORTHERN AND CENTRAL SIERRA

CITY           SKY/WX    TMP DP  RH WIND       PRES   REMARKS
S. LAKE TAHOE  PTSUNNY   36  23  59 S9        30.13R
TRUCKEE          N/A     36  28  75 NE3       30.15R
SQUAW VLY 8000 NOT AVBL
SUSANVILLE     MOSUNNY   39  27  60 NW12      30.17R
BLUE CANYON    SUNNY     36  28  73 CALM      30.16R
MAMMOTH LAKES  FAIR      48   6  18 SW36G49   30.00R
$$

NVZ030-031-036-172000-
NORTHERN NEVADA

CITY           SKY/WX    TMP DP  RH WIND       PRES   REMARKS
ELKO           LGT SNOW  34  29  82 SW9       30.02R
WINNEMUCCA     CLOUDY    41  29  62 NW10      30.09R
WENDOVER       PTSUNNY   44  32  62 NW28G36   29.91R
$$

NVZ035-037-172000-
CENTRAL NEVADA

CITY           SKY/WX    TMP DP  RH WIND       PRES   REMARKS
ELY            CLOUDY    39  34  82 W17G24    29.92R
$$

NVZ013-014-172000-
SOUTH CENTRAL NEVADA

CITY           SKY/WX    TMP DP  RH WIND       PRES   REMARKS
TONOPAH        MOSUNNY   52  28  39 NW23G30   29.99R
$$

NVZ017-020-022-172000-
SOUTHERN NEVADA

CITY           SKY/WX    TMP DP  RH WIND       PRES   REMARKS
LAS VEGAS      PTSUNNY   73  42  32 SW23G36   29.85F
N. LAS VEGAS   MOSUNNY   73  41  31 W21G28    29.84F
NELLIS AFB     MOSUNNY   74  43  32 S17G28    29.85F
HENDERSON      PTSUNNY   71  42  35 SW30G36   29.90S
MERCURY        MOSUNNY   69  42  37 SW20G31   29.91R
$$




USA.gov is the U.S. government's official web portal to all federal, state and local government web resources and services.